www.pogodaiklimat.ru
ПОГОДА в Латробе
Время
и дата
13:47 15.08
14:47 15.08
15:50 15.08
16:50 15.08
17:50 15.08
18:59 15.08
19:02 15.08
19:50 15.08
20:50 15.08
21:15 15.08
21:35 15.08
21:55 15.08
22:15 15.08
22:35 15.08
22:55 15.08
23:15 15.08
23:35 15.08
23:55 15.08
00:15 16.08
00:35 16.08
00:55 16.08
01:15 16.08
01:35 16.08
01:55 16.08
02:15 16.08
02:35 16.08
02:55 16.08
03:15 16.08
03:35 16.08
03:55 16.08
04:15 16.08
04:35 16.08
04:55 16.08
05:15 16.08
05:35 16.08
05:47 16.08
06:47 16.08
07:47 16.08
08:47 16.08
09:47 16.08
10:47 16.08
11:47 16.08
12:47 16.08
13:47 16.08
14:47 16.08
15:50 16.08
16:50 16.08
17:50 16.08
Ветер
(напр.,м/с)
Видим. Явления Облачность Т
(С)
Тd
(С)
f
(%)
Тe
(С)
Тes
(С)
Комфортность P
(гПа)
Po
(гПа)
Тmin
(С)
Tmax
(С)
R
(мм)
R24
(мм)
S
(см)
ЮВ 1 24 км 10/10 630 м +20.0 +17.0 83 +23 +23 комфорт 972.1
В 1 24 км н/о +21.0 +17.0 78 +25 +25 комфорт 971.7
СВ 2 16 км 10/10 690 м +20.0 +17.0 83 +23 +23 комфорт 971.7
В 1 16 км 10/10 690 м +20.0 +17.0 83 +23 +23 комфорт 972.1
В 2 16 км 10/10 900 м +20.0 +17.0 83 +23 +23 комфорт 972.1
В 1 16 км 10/10 600 м +19.0 +17.0 88 +21 +21 комфорт 972.7
В 1 16 км 10/10 600 м +19.0 +17.0 88 +21 +21 комфорт 972.7
В 1 16 км 10/10 570 м +18.0 +17.0 94 +18 +18 973.0
штиль 0 16 км 5/5 690 м +18.0 +16.0 88 +18 +18 973.0
штиль 0 16 км 10/0 2550 м
[Ac]
+18.0 +15.0 83 +18 +18 973.0
штиль 0 16 км 5/0 2700 м
[Ac]
+18.0 +15.0 83 +18 +18 973.0
СВ 1 16 км ясно +17.0 +14.0 82 +17 +17 973.0
СВ 1 16 км ясно +18.0 +14.0 77 +19 +19 973.0
СВ 1 16 км 2/0 2700 м
[Ac]
+18.0 +14.0 77 +19 +19 973.4
штиль 0 16 км 8/0 2100 м
[Ac]
+18.0 +14.0 77 +18 +18 973.4
штиль 0 16 км 10/0 2100 м
[Ac]
+17.0 +14.0 82 +17 +17 973.4
штиль 0 16 км 8/0 2250 м
[Ac]
+17.0 +15.0 88 +17 +17 973.4
С 1 16 км 2/0 2850 м
[Ac]
+16.0 +15.0 94 +15 +15 973.4
штиль 0 16 км ясно +16.0 +15.0 94 +16 +16 973.4
штиль 0 16 км 5/2 1950 м
[Ac]
+16.0 +15.0 94 +16 +16 973.7
штиль 0 16 км 10/8 1950 м
[Ac]
+16.0 +16.0 100 +16 +16 973.4
штиль 0 16 км 10/10 1950 м +16.0 +16.0 100 +16 +16 973.4
С 1 16 км 10/8 1800 м
[Ac]
+17.0 +16.0 94 +17 +17 973.4
С 1 16 км 10/10 1800 м +17.0 +15.0 88 +17 +17 973.4
С 1 16 км 10/10 1950 м +17.0 +15.0 88 +17 +17 973.7
штиль 0 16 км 10/0 2100 м
[Ac]
+17.0 +15.0 88 +17 +17 973.4
С 1 16 км 8/0 2250 м
[Ac]
+17.0 +15.0 88 +17 +17 973.4
С 1 16 км 10/0 2100 м
[Ac]
+17.0 +16.0 94 +17 +17 973.4
С 1 16 км 10/0 2100 м
[Ac]
+16.0 +16.0 100 +15 +15 973.4
С 1 16 км 10/0 2100 м
[Ac]
+16.0 +16.0 100 +15 +15 973.4
С 1 16 км 10/0 2100 м
[Ac]
+16.0 +16.0 100 +16 +16 973.7
штиль 0 16 км 8/0 2100 м
[Ac]
+16.0 +16.0 100 +16 +16 973.4
СВ 1 16 км 2/0 2400 м
[Ac]
+16.0 +16.0 100 +15 +15 973.7
штиль 0 16 км 8/0 2250 м
[Ac]
+16.0 +16.0 100 +16 +16 973.7
штиль 0 16 км 10/0 2250 м
[Ac]
+16.0 +16.0 100 +16 +16 974.0
СВ 1 24 км 8/0 2400 м
[Ac]
+16.0 +16.0 100 +15 +15 974.0
СВ 1 24 км 8/0 2250 м
[Ac]
+17.0 +17.0 100 +17 +17 974.0
С 1 24 км 8/0 2550 м
[Ac]
+18.0 +16.0 88 +18 +19 974.3
СВ 1 24 км н/о +20.0 +15.0 73 +23 +23 комфорт 974.7
В 1 24 км 2/2 1080 м +21.0 +15.0 69 +25 +32 комфорт 974.7
СВ 2 24 км 2/2 1080 м +21.0 +15.0 69 +24 +31 комфорт 975.0
СВ 2 32 км 8/2 1050 м
[Ac]
+21.0 +17.0 78 +25 +29 комфорт 975.0
СВ 1 32 км 8/2 1050 м
[Ac]
+23.0 +15.0 61 +27 +34 душно 974.7
В 2 32 км 8/2 1050 м
[Ac]
+24.0 +13.0 50 +26 +31 жарко 974.7
В 2 32 км 8/2 1050 м
[Ac]
+25.0 +16.0 57 +28 +33 жарко 974.0
ЮВ 2 24 км 2/0 3300 м
[Ac]
+23.0 +13.0 53 +26 +31 жарко 973.7
В 2 16 км 5/0 3300 м
[Ac]
+24.0 +13.0 50 +26 +29 жарко 973.7
штиль 0 16 км 8/0 3300 м
[Ac]
+23.0 +14.0 57 +26 +29 жарко 974.0
Местоположение метеостанции Arnold Palmer Regional Airport: широта 40.2800 долгота -79.4000 высота над уровнем моря 361 м.
В архиве по умолчанию представлена погода в Латробе за последние 1-2 суток. Обновление информации о фактической погоде в базе происходит ежечасно! Архивные данные за месяц целиком и за предыдущие месяцы Вы можете получить, выбрав интересующий диапазон дат из раскрывающегося списка и нажав кнопку "Ввод!".
Внимание! Архив погоды МЕТАР в базе сайта по станциям, не включенным в климатический монитор, хранится не более 60 дней. Нет смысла пытаться выбрать более раннюю дату.
*Определитесь, кто Вы:
Внимание! Время в таблицах - местное (без учета летнего времени). Для получения всемирного времени необходимо вычесть поправку, которая равна -5 ч.
Смотрите также архив погоды в соседних городах и на ближайших метеорологических станциях:
Партнеры нашего сайта:      
Пояснения к столбцам:
  • Ветер - указаны скорость ветра в м/с - средняя за 10 мин, порывы в срок и между сроками (в фигурных скобках) и направление, откуда дует ветер: С - северный,
  • СВ - северо-восточный, В - восточный, ЮВ - юго-восточный, Ю - южный, ЮЗ - юго-западный, З - западный, СЗ - северо-западный.
  • Видимость - горизонтальная дальность видимости в метрах или километрах. При видимости от 1 до 10 км при отсутствии осадков обычно наблюдается дымка, при ухудшении видимости до 1 км и менее - туман. В сухую погоду видимость может ухудшаться дымом, пылью или мглою.
  • Явления - указаны атмосферные явления, наблюдавшиеся в срок или в последний час перед сроком; фигурными скобками обозначены явления, наблюдавшиеся между сроками (за 1-3 часа до срока); квадратными скобками обозначены град или гололедные отложения с указанием их диаметра в мм.
  • Облачность - указаны через наклонную черту общая и нижняя облачность в баллах и высота нижней границы облаков в метрах; квадратными скобками обозначены формы облаков: Ci - перистые, Cs - перисто-слоистые, Cc - перисто-кучевые, Ac - высококучевые, As - высокослоистые, Sc - слоисто-кучевые, Ns - слоисто-дождевые, Cu - кучевые, Cb - кучево-дождевые. Подробнее классификацию облаков см. в Атласе облаков (PDF).
  • T - Температура воздуха - температура, измеренная на высоте 2 м над землей.
  • Td - Температура точки росы - температура, при понижении до которой содержащийся в воздухе водяной пар достигнет насыщения.
  • f - Относительная влажность воздуха - влажноcть воздуха, измеренная на высоте 2 м над землей.
  • Te - Эффективная температура - температура, которую ощущает одетый по сезону человек в тени. Характеристика душности погоды. При расчете учитывается влияние влажности воздуха и скорости ветра на теплоощущения человека.
  • Tes - Эффективная температура на солнце - температура, которую ощущает человек, с поправкой на солнечный нагрев. Характеристика знойности погоды. Зависит от высоты солнца над горизонтом, облачности и скорости ветра. Ночью, в пасмурную погоду, а также при ветре 12 м/с и более поправка равна нулю.
  • P - Атмосферное давление - приведенное к уровню моря атмосферное давление.
  • Po - Атмосферное давление - измеренное на уровне метеостанции атмосферное давление.
  • Tmin - Минимальная температура - минимум температуры воздуха на высоте 2 м над землей.
  • Tmax - Максимальная температура - максимум температуры воздуха на высоте 2 м над землей.
  • R - Количество осадков - Количество выпавших осадков за период времени, мм. При наведении курсора мыши на число - период времени, за который выпало указанное количество осадков.
  • R24 - Количество осадков - Количество выпавших осадков за 24 часа, мм.
  • S - Снежный покров - Высота снежного покрова, см. При наведении курсора мыши на число - состояние снежного покрова и степень покрытия местности в баллах.